This demonstration page uses our WeatherBlox Daily Observations layout. Learn more.

41.55636, -103.73856

Hourly Observations for April 21, 2019

Temp ( °F °C ) Dew Point ( °F °C ) Humidity (%) Winds ( mph kmh ) Pressure ( in mb ) Visibility ( mi km ) Precip ( " mm )
12:58 am 00:58 Mostly Cloudy 70 21.1 24 -4.6 17 17 WNW 10 17 29.62 1003 10 16.0934 0 0
1:58 am 01:58 Mostly Cloudy 68 19.9 25 -3.8 20 20 NW 7 11 29.62 1003 10 16.0934 0 0
2:58 am 02:58 Mostly Cloudy 69 20.5 24 -4.7 18 18 S 15 24 29.6 1002 10 16.0934 0 0
3:58 am 03:58 Mostly Cloudy 68 19.8 26 -3.3 21 21 NNW 6 9 29.61 1003 10 16.0934 0 0
4:58 am 04:58 Mostly Cloudy 60 15.4 31 -0.6 34 34 W 7 11 29.62 1003 10 16.0934 0 0
5:58 am 05:58 Mostly Cloudy 58 14.3 33 0.4 39 39 NNW 10 17 29.63 1003 10 16.0934 0 0
6:58 am 06:58 Partly Cloudy 55 12.5 33 0.3 43 43 N 3 6 29.62 1003 10 16.0934 0 0
7:58 am 07:58 Partly Cloudy 53 11.4 35 1.4 51 51 N 8 13 29.63 1003 10 16.0934 0 0
8:58 am 08:58 Cloudy 57 14.1 30 -1 36 36 ESE 3 6 29.62 1003 10 16.0934 0 0
9:58 am 09:58 Clear 52 11.1 34 1.1 50 50 NW 12 19 29.61 1003 10 16.0934 0 0
10:58 am 10:58 Mostly Clear 49 9.6 35 1.7 58 58 NNW 7 11 29.62 1003 10 16.0934 0 0
11:58 am 11:58 Mostly Cloudy 50 10.1 37 2.6 60 60 NNW 8 13 29.62 1003 10 16.0934 0 0
12:58 pm 12:58 Mostly Cloudy 48 9.1 40 4.4 73 73 SE 5 7 29.69 1006 10 16.0934 0 0
1:58 pm 13:58 Mostly Cloudy with Light Showers 50 10 44 6.6 80 80 ENE 10 17 29.72 1007 10 16.0934 0 0
2:58 pm 14:58 Mostly Cloudy with Light Showers 50 9.9 44 6.6 80 80 N 6 9 29.73 1007 10 16.0934 0 0
3:58 pm 15:58 Cloudy with Rain 51 10.5 46 7.6 82 82 NW 10 17 29.76 1008 10 16.0934 0.02 0.508
4:58 pm 16:58 Cloudy with Rain 48 8.8 46 7.8 94 94 NW 15 24 29.79 1009 10 16.0934 0.04 1.016
5:58 pm 17:58 Mostly Cloudy with Rain 46 7.9 45 7 94 94 N 14 22 29.83 1010 7 11.26538 0.08 2.032
6:58 pm 18:58 Mostly Cloudy with Rain 46 7.5 44 6.9 96 96 N 9 15 29.83 1010 0.75 1.207005 0.09 2.286
7:58 pm 19:58 Mostly Cloudy with Rain 46 7.8 45 7.2 96 96 N 12 19 29.84 1011 4 6.43736 0.12 3.048
8:58 pm 20:58 Mostly Cloudy with Rain 46 7.8 45 7.2 96 96 N 10 17 29.85 1011 10 16.0934 0.16 4.064
9:58 pm 21:58 Mostly Cloudy with Light Rain 46 7.9 45 7.2 95 95 NNE 12 19 29.87 1012 5 8.0467 0.08 2.032
10:58 pm 22:58 Mostly Cloudy with Light Rain 46 7.6 44 6.9 95 95 N 15 24 29.92 1013 2.75 4.425685 0.02 0.508
11:58 pm 23:58 Mostly Cloudy with Light Rain 45 7 44 6.4 96 96 NNE 13 20 29.94 1014 10 16.0934 0.01 0.254

Powered by AerisWeather